User: anonymous   Login
Location: *
(2.7500°S, 66.6833°W)
Time: 22:30:21
(UTC+00:00)
Language:

SEDSat Delta rocket - Orbit

View from above orbital plane
View from above orbital plane
View from above satellite
View from above satellite

Ground track
Ground track

The orbit data is extracted from the following two-line orbital elements,

1 25510U 98061C   24206.56704846  .00003383  00000-0  56301-3 0  9996
2 25510  31.4338   2.1767 0315467  76.2550 287.2981 14.40745811351530
Epoch (UTC): 24 July 2024 13:36:32
Eccentricity: 0.0315467
inclination: 31.4338°
perigee height: 531 km
apogee height: 981 km
right ascension of ascending node: 2.1767°
argument of perigee: 76.2550°
revolutions per day: 14.40745811
mean anomaly at epoch: 287.2981°
orbit number at epoch: 35153

The dashed part of the orbit path shows where the satellite is in the earth's shadow,  

DLR